Location: Unspecified
(0.0000°N, 0.0000°E)
Time: 21:01:32
(UTC+00:00)

Envisat - Pass Details

Date: 06 August 2022
Orbit: 763 x 765 km, 98.2° (Epoch: 15 August)

Event Time Altitude Azimuth Distance (km) Brightness Sun altitude
Rises 05:15:22 0° 333° (NNW) 3,213 6.1 -12.1°
Reaches altitude 10° 05:19:36 10° 298° (WNW) 2,292 5.1 -11.1°
Maximum altitude 05:20:55 11° 283° (WNW) 2,226 4.9 -10.8°
Enters shadow 05:21:20 11° 278° (W) 2,233 4.8 -10.7°
